Regional Weather Roundup
Issued by NWS

Home | Current Version | Previous Version | Text Only | Print | Product List | Glossary On
Versions: 1 2 3 4 5 6 7 8 9 10 11 12 13 14 15 16 17 18 19 20 21 22 23 24 25 26 27 28 29 30 31 32 33 34 35 36 37 38 39 40 41 42 43 44 45 46 47 48 49 50
000
ASUS43 KBIS 300310
RWRND

NORTH DAKOTA REGIONAL WEATHER ROUNDUP
NATIONAL WEATHER SERVICE BISMARCK ND
1000 PM CDT MON JUN 29 2015

NOTE: "FAIR" INDICATES FEW OR NO CLOUDS BELOW 12,000 FEET WITH NO
SIGNIFICANT WEATHER AND/OR OBSTRUCTIONS TO VISIBILITY.


NDZ001>003-009>011-017-300400-
NORTHWEST NORTH DAKOTA

CITY           SKY/WX    TMP DP  RH WIND       PRES   REMARKS
WILLISTON      CLOUDY    78  53  41 N15       29.96R HAZE
MINOT          CLOUDY    74  65  73 E6        29.91R
MINOT AFB      CLEAR     76  68  76 E8        29.90R
$$

NDZ018>021-031>035-040>046-300400-
SOUTHWEST NORTH DAKOTA

CITY           SKY/WX    TMP DP  RH WIND       PRES   REMARKS
BISMARCK       PTCLDY    75  65  70 E8        29.90R
DICKINSON      MOCLDY    74  67  78 E7        29.91R
GARRISON         N/A     78  67  68 NE6       29.91S
HETTINGER ARPT MOCLDY    76  66  71 CALM      29.94S
$$

NDZ004>008-012>016-024-026-027-054-300400-
NORTHEAST NORTH DAKOTA

CITY           SKY/WX    TMP DP  RH WIND       PRES   REMARKS
GRAND FORKS    CLOUDY    62  60  93 N3        29.91R
GRND FRKS AFB  PTCLDY    64  60  88 N3        29.92R
DEVILS LAKE    PTCLDY    66  57  72 E6        29.94R
$$

NDZ022-023-025-028>030-036>039-047>053-300400-
SOUTHEAST NORTH DAKOTA

CITY           SKY/WX    TMP DP  RH WIND       PRES   REMARKS
FARGO          PTCLDY    67  62  84 N7        29.89R
JAMESTOWN      CLOUDY    68  62  81 NE8       29.92R
$$



USA.gov is the U.S. government's official web portal to all federal, state and local government web resources and services.